Location: Altleiningen
(49.5078°N, 8.0741°E)
Time: 05:03:09
(UTC+00:00)

Cosmos 1933 Rocket - Pass Details

Date: 03 March 2021
Orbit: 607 x 629 km, 82.5° (Epoch: 11 April)

Event Time Altitude Azimuth Distance (km) Brightness Sun altitude
Rises 18:56:53 0° 194° (SSW) 2,861 7.0 -17.5°
Reaches altitude 10° 18:59:06 10° 197° (SSW) 1,965 6.2 -17.8°
Maximum altitude 19:03:26 70° 282° (WNW) 660 3.8 -18.5°
Drops below altitude 10° 19:07:50 10° 6° (N) 1,994 6.2 -19.2°
Sets 19:10:06 0° 9° (N) 2,909 7.1 -19.5°
